Time,TemperatureF,DewpointF,PressureIn,WindDirection,WindDirectionDegrees,WindSpeedMPH,WindSpeedGustMPH,Humidity,HourlyPrecipIn,Conditions,Clouds,dailyrainin,SoftwareType,DateUTC
2013-05-30 00:00:00,72.8,66.3,30.06,SSW,196,0.0,0.0,80,0.00,,,0.00,Wunderground v.1.15,2013-05-30 04:00:00,
2013-05-30 00:05:00,72.8,65.9,30.06,SSW,196,0.0,1.0,79,0.00,,,0.00,Wunderground v.1.15,2013-05-30 04:05:00,
2013-05-30 00:10:00,72.5,66.7,30.06,SSW,196,0.0,1.0,82,0.00,,,0.00,Wunderground v.1.15,2013-05-30 04:10:00,
2013-05-30 00:15:00,72.3,66.5,30.06,SSW,196,0.0,0.0,82,0.00,,,0.00,Wunderground v.1.15,2013-05-30 04:15:00,
2013-05-30 00:25:00,72.1,66.3,30.06,SSW,196,1.0,2.0,82,0.00,,,0.00,Wunderground v.1.15,2013-05-30 04:25:00,
2013-05-30 00:30:00,72.5,66.3,30.06,SSW,196,1.0,2.0,81,0.00,,,0.00,Wunderground v.1.15,2013-05-30 04:30:00,
2013-05-30 00:35:00,72.8,66.3,30.06,SSW,196,1.0,1.0,80,0.00,,,0.00,Wunderground v.1.15,2013-05-30 04:35:00,
2013-05-30 00:45:00,72.0,66.2,30.07,SSW,196,1.0,1.0,82,0.00,,,0.00,Wunderground v.1.15,2013-05-30 04:45:00,
2013-05-30 00:50:00,71.1,66.0,30.07,SSW,196,0.0,1.0,84,0.00,,,0.00,Wunderground v.1.15,2013-05-30 04:50:00,
2013-05-30 01:05:00,68.8,65.4,30.07,SSW,196,0.0,0.0,89,0.00,,,0.00,Wunderground v.1.15,2013-05-30 05:05:00,
2013-05-30 01:10:00,68.6,65.2,30.08,SSW,196,0.0,0.0,89,0.00,,,0.00,Wunderground v.1.15,2013-05-30 05:10:00,
2013-05-30 01:20:00,68.8,65.4,30.08,SSW,196,0.0,0.0,89,0.00,,,0.00,Wunderground v.1.15,2013-05-30 05:20:00,
2013-05-30 01:30:00,69.1,65.7,30.08,SSW,196,0.0,0.0,89,0.00,,,0.00,Wunderground v.1.15,2013-05-30 05:30:00,
2013-05-30 01:40:00,68.9,65.5,30.08,SSW,196,0.0,0.0,89,0.00,,,0.00,Wunderground v.1.15,2013-05-30 05:40:00,
2013-05-30 01:50:00,68.9,64.9,30.08,SSW,196,1.0,2.0,87,0.00,,,0.00,Wunderground v.1.15,2013-05-30 05:50:00,
2013-05-30 01:55:00,68.3,65.3,30.08,SSW,196,1.0,1.0,90,0.00,,,0.00,Wunderground v.1.15,2013-05-30 05:55:00,
2013-05-30 02:00:00,67.8,65.1,30.09,SSW,196,1.0,2.0,91,0.00,,,0.00,Wunderground v.1.15,2013-05-30 06:00:00,
2013-05-30 02:05:00,67.6,64.9,30.09,SSW,196,0.0,2.0,91,0.00,,,0.00,Wunderground v.1.15,2013-05-30 06:05:00,
2013-05-30 02:10:00,67.4,64.7,30.09,SSW,196,0.0,0.0,91,0.00,,,0.00,Wunderground v.1.15,2013-05-30 06:10:00,
2013-05-30 02:20:00,66.9,64.5,30.09,SSW,196,0.0,0.0,92,0.00,,,0.00,Wunderground v.1.15,2013-05-30 06:20:00,
2013-05-30 02:30:00,67.1,64.4,30.09,SSW,196,0.0,0.0,91,0.00,,,0.00,Wunderground v.1.15,2013-05-30 06:30:00,
2013-05-30 02:40:00,66.9,64.5,30.09,SSW,196,0.0,0.0,92,0.00,,,0.00,Wunderground v.1.15,2013-05-30 06:40:00,
2013-05-30 02:45:00,66.6,64.5,30.09,SSW,196,0.0,0.0,93,0.00,,,0.00,Wunderground v.1.15,2013-05-30 06:45:00,
2013-05-30 02:55:00,66.4,64.6,30.09,SSW,196,0.0,0.0,94,0.00,,,0.00,Wunderground v.1.15,2013-05-30 06:55:00,
2013-05-30 03:00:00,67.3,64.9,30.09,SSW,196,0.0,0.0,92,0.00,,,0.00,Wunderground v.1.15,2013-05-30 07:00:00,
2013-05-30 03:10:00,68.4,65.0,30.09,SSW,196,0.0,1.0,89,0.00,,,0.00,Wunderground v.1.15,2013-05-30 07:10:00,
2013-05-30 03:15:00,67.8,64.8,30.09,SSW,196,0.0,1.0,90,0.00,,,0.00,Wunderground v.1.15,2013-05-30 07:15:00,
2013-05-30 03:25:00,67.6,64.2,30.09,SSW,196,0.0,0.0,89,0.00,,,0.00,Wunderground v.1.15,2013-05-30 07:25:00,
2013-05-30 03:30:00,67.6,64.6,30.10,SSW,196,0.0,1.0,90,0.00,,,0.00,Wunderground v.1.15,2013-05-30 07:30:00,
2013-05-30 03:40:00,66.3,63.9,30.10,SSW,196,0.0,0.0,92,0.00,,,0.00,Wunderground v.1.15,2013-05-30 07:40:00,
2013-05-30 03:50:00,65.5,63.7,30.10,SSW,196,1.0,2.0,94,0.00,,,0.00,Wunderground v.1.15,2013-05-30 07:50:00,
2013-05-30 03:55:00,65.0,63.2,30.10,SSW,196,1.0,2.0,94,0.00,,,0.00,Wunderground v.1.15,2013-05-30 07:55:00,
2013-05-30 04:05:00,64.3,62.8,30.10,SSW,196,1.0,1.0,95,0.00,,,0.00,Wunderground v.1.15,2013-05-30 08:05:00,
2013-05-30 04:10:00,64.2,62.7,30.10,SSW,196,1.0,1.0,95,0.00,,,0.00,Wunderground v.1.15,2013-05-30 08:10:00,
2013-05-30 04:20:00,64.8,63.3,30.11,SSW,196,1.0,1.0,95,0.00,,,0.00,Wunderground v.1.15,2013-05-30 08:20:00,
2013-05-30 04:30:00,65.6,63.5,30.11,SSW,196,1.0,1.0,93,0.00,,,0.00,Wunderground v.1.15,2013-05-30 08:30:00,
2013-05-30 04:40:00,66.0,63.3,30.11,SSW,196,1.0,1.0,91,0.00,,,0.00,Wunderground v.1.15,2013-05-30 08:40:00,
2013-05-30 04:45:00,66.3,63.6,30.11,SSW,196,1.0,3.0,91,0.00,,,0.00,Wunderground v.1.15,2013-05-30 08:45:00,
2013-05-30 04:50:00,66.3,63.3,30.11,SSW,196,2.0,2.0,90,0.00,,,0.00,Wunderground v.1.15,2013-05-30 08:50:00,
2013-05-30 05:00:00,66.4,63.4,30.11,SSW,196,1.0,2.0,90,0.00,,,0.00,Wunderground v.1.15,2013-05-30 09:00:00,
2013-05-30 05:10:00,66.6,63.3,30.12,SSW,196,1.0,1.0,89,0.00,,,0.00,Wunderground v.1.15,2013-05-30 09:10:00,
2013-05-30 05:15:00,66.4,63.1,30.12,SSW,196,0.0,1.0,89,0.00,,,0.00,Wunderground v.1.15,2013-05-30 09:15:00,
2013-05-30 05:25:00,66.1,63.1,30.12,SSW,196,0.0,0.0,90,0.00,,,0.00,Wunderground v.1.15,2013-05-30 09:25:00,
2013-05-30 05:35:00,65.0,62.9,30.13,SSW,196,0.0,2.0,93,0.00,,,0.00,Wunderground v.1.15,2013-05-30 09:35:00,
2013-05-30 05:40:00,64.5,62.4,30.13,SSW,196,0.0,0.0,93,0.00,,,0.00,Wunderground v.1.15,2013-05-30 09:40:00,
2013-05-30 05:45:00,64.3,62.5,30.13,SSW,196,0.0,0.0,94,0.00,,,0.00,Wunderground v.1.15,2013-05-30 09:45:00,
2013-05-30 05:55:00,64.0,62.2,30.14,SSW,196,0.0,0.0,94,0.00,,,0.00,Wunderground v.1.15,2013-05-30 09:55:00,
2013-05-30 06:00:00,64.5,63.0,30.14,SSW,196,0.0,1.0,95,0.00,,,0.00,Wunderground v.1.15,2013-05-30 10:00:00,
2013-05-30 06:10:00,65.3,62.9,30.14,SSW,196,0.0,1.0,92,0.00,,,0.00,Wunderground v.1.15,2013-05-30 10:10:00,
2013-05-30 06:20:00,64.7,62.6,30.14,SSW,196,0.0,0.0,93,0.00,,,0.00,Wunderground v.1.15,2013-05-30 10:20:00,
2013-05-30 06:30:00,64.2,62.4,30.14,SSW,196,0.0,2.0,94,0.00,,,0.00,Wunderground v.1.15,2013-05-30 10:30:00,
2013-05-30 06:35:00,64.0,61.9,30.14,SSW,196,1.0,2.0,93,0.00,,,0.00,Wunderground v.1.15,2013-05-30 10:35:00,
2013-05-30 06:45:00,64.3,62.2,30.15,SSW,196,0.0,0.0,93,0.00,,,0.00,Wunderground v.1.15,2013-05-30 10:45:00,
2013-05-30 06:55:00,65.5,63.1,30.15,SSW,196,0.0,0.0,92,0.00,,,0.00,Wunderground v.1.15,2013-05-30 10:55:00,
2013-05-30 07:00:00,66.3,63.6,30.15,SSW,196,0.0,0.0,91,0.00,,,0.00,Wunderground v.1.15,2013-05-30 11:00:00,
2013-05-30 07:10:00,68.1,65.1,30.15,SSW,196,0.0,1.0,90,0.00,,,0.00,Wunderground v.1.15,2013-05-30 11:10:00,
2013-05-30 07:15:00,69.1,64.4,30.15,SSW,196,1.0,3.0,85,0.00,,,0.00,Wunderground v.1.15,2013-05-30 11:15:00,
2013-05-30 07:25:00,70.6,66.2,30.15,SSW,196,2.0,2.0,86,0.00,,,0.00,Wunderground v.1.15,2013-05-30 11:25:00,
2013-05-30 07:35:00,71.8,65.3,30.15,SSW,196,3.0,5.0,80,0.00,,,0.00,Wunderground v.1.15,2013-05-30 11:35:00,
2013-05-30 07:45:00,72.3,65.8,30.15,SSW,196,3.0,3.0,80,0.00,,,0.00,Wunderground v.1.15,2013-05-30 11:45:00,
2013-05-30 07:55:00,72.5,64.9,30.15,SSW,197,5.0,5.0,77,0.00,,,0.00,Wunderground v.1.15,2013-05-30 11:55:00,
2013-05-30 08:00:00,72.7,65.1,30.16,SSW,203,5.0,7.0,77,0.00,,,0.00,Wunderground v.1.15,2013-05-30 12:00:00,
2013-05-30 08:10:00,73.2,65.2,30.16,SSW,199,5.0,5.0,76,0.00,,,0.00,Wunderground v.1.15,2013-05-30 12:10:00,
2013-05-30 08:15:00,73.9,65.5,30.16,SSW,195,5.0,5.0,75,0.00,,,0.00,Wunderground v.1.15,2013-05-30 12:15:00,
2013-05-30 08:25:00,74.7,65.9,30.16,SSE,163,3.0,4.0,74,0.00,,,0.00,Wunderground v.1.15,2013-05-30 12:25:00,
2013-05-30 08:30:00,74.6,66.1,30.16,West,276,3.0,5.0,75,0.00,,,0.00,Wunderground v.1.15,2013-05-30 12:30:00,
2013-05-30 08:40:00,74.7,65.5,30.15,SSW,209,3.0,4.0,73,0.00,,,0.00,Wunderground v.1.15,2013-05-30 12:40:00,
2013-05-30 08:50:00,75.4,65.7,30.15,South,176,2.0,3.0,72,0.00,,,0.00,Wunderground v.1.15,2013-05-30 12:50:00,
2013-05-30 08:55:00,76.1,66.4,30.15,South,175,3.0,3.0,72,0.00,,,0.00,Wunderground v.1.15,2013-05-30 12:55:00,
2013-05-30 09:05:00,77.0,66.0,30.16,South,190,3.0,3.0,69,0.00,,,0.00,Wunderground v.1.15,2013-05-30 13:05:00,
2013-05-30 09:15:00,77.6,65.8,30.16,SSE,157,3.0,5.0,67,0.00,,,0.00,Wunderground v.1.15,2013-05-30 13:15:00,
2013-05-30 09:25:00,78.5,66.2,30.16,South,187,3.0,4.0,66,0.00,,,0.00,Wunderground v.1.15,2013-05-30 13:25:00,
2013-05-30 09:30:00,78.5,65.8,30.16,South,173,4.0,4.0,65,0.00,,,0.00,Wunderground v.1.15,2013-05-30 13:30:00,
2013-05-30 09:35:00,78.6,66.3,30.16,South,173,3.0,4.0,66,0.00,,,0.00,Wunderground v.1.15,2013-05-30 13:35:00,
2013-05-30 09:50:00,79.4,67.0,30.16,WNW,286,3.0,3.0,66,0.00,,,0.00,Wunderground v.1.15,2013-05-30 13:50:00,
2013-05-30 10:00:00,79.4,66.2,30.16,WSW,237,3.0,3.0,64,0.00,,,0.00,Wunderground v.1.15,2013-05-30 14:00:00,
2013-05-30 10:10:00,80.1,65.9,30.16,WSW,237,2.0,2.0,62,0.00,,,0.00,Wunderground v.1.15,2013-05-30 14:10:00,
2013-05-30 10:20:00,81.4,65.2,30.16,SW,229,4.0,4.0,58,0.00,,,0.00,Wunderground v.1.15,2013-05-30 14:20:00,
2013-05-30 10:30:00,82.2,65.4,30.16,WSW,241,3.0,5.0,57,0.00,,,0.00,Wunderground v.1.15,2013-05-30 14:30:00,
2013-05-30 10:35:00,82.4,65.1,30.16,SSE,150,2.0,5.0,56,0.00,,,0.00,Wunderground v.1.15,2013-05-30 14:35:00,
2013-05-30 10:50:00,83.8,65.4,30.16,WSW,241,4.0,4.0,54,0.00,,,0.00,Wunderground v.1.15,2013-05-30 14:50:00,
2013-05-30 10:55:00,83.8,65.9,30.16,South,176,4.0,4.0,55,0.00,,,0.00,Wunderground v.1.15,2013-05-30 14:55:00,
2013-05-30 11:15:00,85.3,64.6,30.16,WSW,254,5.0,5.0,50,0.00,,,0.00,Wunderground v.1.15,2013-05-30 15:15:00,
2013-05-30 11:25:00,85.5,64.2,30.15,WSW,250,4.0,4.0,49,0.00,,,0.00,Wunderground v.1.15,2013-05-30 15:25:00,
2013-05-30 11:39:00,85.5,63.6,30.15,WSW,254,5.0,5.0,48,0.00,,,0.00,Wunderground v.1.15,2013-05-30 15:39:00,
2013-05-30 11:55:00,87.0,65.5,30.15,SW,234,4.0,4.0,49,0.00,,,0.00,Wunderground v.1.15,2013-05-30 15:55:00,
2013-05-30 12:00:00,86.5,62.6,30.15,NW,304,3.0,3.0,45,0.00,,,0.00,Wunderground v.1.15,2013-05-30 16:00:00,
2013-05-30 12:09:00,87.4,62.8,30.15,West,281,5.0,7.0,44,0.00,,,0.00,Wunderground v.1.15,2013-05-30 16:09:00,
2013-05-30 12:15:00,87.6,64.9,30.15,SW,231,5.0,5.0,47,0.00,,,0.00,Wunderground v.1.15,2013-05-30 16:15:00,
2013-05-30 12:25:00,87.3,61.4,30.14,WNW,298,4.0,4.0,42,0.00,,,0.00,Wunderground v.1.15,2013-05-30 16:25:00,
2013-05-30 12:35:00,87.9,62.6,30.14,WSW,256,3.0,9.0,43,0.00,,,0.00,Wunderground v.1.15,2013-05-30 16:35:00,
2013-05-30 13:00:00,88.8,62.7,30.13,West,267,3.0,5.0,42,0.00,,,0.00,Wunderground v.1.15,2013-05-30 17:00:00,
2013-05-30 13:25:00,88.8,61.4,30.13,WSW,246,6.0,6.0,40,0.00,,,0.00,Wunderground v.1.15,2013-05-30 17:25:00,
2013-05-30 13:35:00,88.3,64.3,30.12,East,90,3.0,3.0,45,0.00,,,0.00,Wunderground v.1.15,2013-05-30 17:35:00,
2013-05-30 13:45:00,89.0,63.6,30.12,East,100,3.0,5.0,43,0.00,,,0.00,Wunderground v.1.15,2013-05-30 17:45:00,
2013-05-30 13:54:00,89.4,64.0,30.11,SW,219,5.0,5.0,43,0.00,,,0.00,Wunderground v.1.15,2013-05-30 17:54:00,
2013-05-30 14:05:00,89.4,63.3,30.11,West,265,5.0,8.0,42,0.00,,,0.00,Wunderground v.1.15,2013-05-30 18:05:00,
2013-05-30 14:10:00,89.4,63.3,30.11,SW,231,5.0,8.0,42,0.00,,,0.00,Wunderground v.1.15,2013-05-30 18:10:00,
2013-05-30 14:25:00,89.8,62.3,30.11,SSW,207,7.0,7.0,40,0.00,,,0.00,Wunderground v.1.15,2013-05-30 18:25:00,
2013-05-30 14:30:00,90.5,64.3,30.10,South,174,6.0,7.0,42,0.00,,,0.00,Wunderground v.1.15,2013-05-30 18:30:00,
2013-05-30 14:49:00,89.6,62.1,30.10,West,275,4.0,4.0,40,0.00,,,0.00,Wunderground v.1.15,2013-05-30 18:49:00,
2013-05-30 14:55:00,90.2,62.6,30.10,South,171,3.0,4.0,40,0.00,,,0.00,Wunderground v.1.15,2013-05-30 18:55:00,
2013-05-30 15:00:00,90.5,61.4,30.10,SSW,197,5.0,5.0,38,0.00,,,0.00,Wunderground v.1.15,2013-05-30 19:00:00,
2013-05-30 15:10:00,90.5,60.7,30.10,SW,215,6.0,9.0,37,0.00,,,0.00,Wunderground v.1.15,2013-05-30 19:10:00,
2013-05-30 15:15:00,90.2,60.4,30.10,SSE,168,6.0,9.0,37,0.00,,,0.00,Wunderground v.1.15,2013-05-30 19:15:00,
2013-05-30 15:30:00,89.6,61.4,30.10,WSW,240,3.0,3.0,39,0.00,,,0.00,Wunderground v.1.15,2013-05-30 19:30:00,
2013-05-30 15:35:00,89.8,62.3,30.10,West,262,4.0,4.0,40,0.00,,,0.00,Wunderground v.1.15,2013-05-30 19:35:00,
2013-05-30 15:55:00,90.2,64.7,30.09,West,265,5.0,6.0,43,0.00,,,0.00,Wunderground v.1.15,2013-05-30 19:55:00,
2013-05-30 16:20:00,90.5,60.7,30.09,South,183,5.0,12.0,37,0.00,,,0.00,Wunderground v.1.15,2013-05-30 20:20:00,
2013-05-30 16:25:00,90.7,63.1,30.09,West,264,6.0,12.0,40,0.00,,,0.00,Wunderground v.1.15,2013-05-30 20:25:00,
2013-05-30 16:35:00,90.9,60.3,30.09,WSW,252,4.0,6.0,36,0.00,,,0.00,Wunderground v.1.15,2013-05-30 20:35:00,
2013-05-30 16:50:00,86.2,65.4,30.09,North,355,5.0,5.0,50,0.00,,,0.00,Wunderground v.1.15,2013-05-30 20:50:00,
2013-05-30 16:55:00,86.2,65.9,30.09,NE,55,4.0,5.0,51,0.00,,,0.00,Wunderground v.1.15,2013-05-30 20:55:00,
2013-05-30 17:05:00,86.5,68.9,30.08,North,5,3.0,3.0,56,0.00,,,0.00,Wunderground v.1.15,2013-05-30 21:05:00,
2013-05-30 17:10:00,85.8,66.1,30.08,North,5,3.0,3.0,52,0.00,,,0.00,Wunderground v.1.15,2013-05-30 21:10:00,
2013-05-30 17:15:00,86.7,66.4,30.08,North,5,2.0,6.0,51,0.00,,,0.00,Wunderground v.1.15,2013-05-30 21:15:00,
2013-05-30 17:20:00,86.7,65.3,30.08,North,5,3.0,6.0,49,0.00,,,0.00,Wunderground v.1.15,2013-05-30 21:20:00,
2013-05-30 17:30:00,85.6,66.0,30.08,North,360,4.0,6.0,52,0.00,,,0.00,Wunderground v.1.15,2013-05-30 21:30:00,
2013-05-30 17:40:00,86.2,65.9,30.08,North,360,2.0,6.0,51,0.00,,,0.00,Wunderground v.1.15,2013-05-30 21:40:00,
2013-05-30 17:45:00,87.3,65.2,30.08,NNE,31,2.0,2.0,48,0.00,,,0.00,Wunderground v.1.15,2013-05-30 21:45:00,
2013-05-30 17:50:00,87.5,64.8,30.08,NNE,31,2.0,2.0,47,0.00,,,0.00,Wunderground v.1.15,2013-05-30 21:50:00,
2013-05-30 18:00:00,88.5,63.1,30.07,SSE,161,5.0,11.0,43,0.00,,,0.00,Wunderground v.1.15,2013-05-30 22:00:00,
2013-05-30 18:10:00,88.8,62.1,30.07,South,185,6.0,6.0,41,0.00,,,0.00,Wunderground v.1.15,2013-05-30 22:10:00,
2013-05-30 18:20:00,88.5,63.8,30.07,South,175,5.0,7.0,44,0.00,,,0.00,Wunderground v.1.15,2013-05-30 22:20:00,
2013-05-30 18:25:00,88.3,63.0,30.07,SSE,155,6.0,7.0,43,0.00,,,0.00,Wunderground v.1.15,2013-05-30 22:25:00,
2013-05-30 18:35:00,88.1,62.1,30.07,SSW,202,6.0,6.0,42,0.00,,,0.00,Wunderground v.1.15,2013-05-30 22:35:00,
2013-05-30 18:45:00,87.7,62.4,30.07,SSE,165,7.0,7.0,43,0.00,,,0.00,Wunderground v.1.15,2013-05-30 22:45:00,
2013-05-30 18:50:00,87.3,62.1,30.07,South,188,7.0,7.0,43,0.00,,,0.00,Wunderground v.1.15,2013-05-30 22:50:00,
2013-05-30 19:00:00,87.1,62.5,30.08,South,175,6.0,6.0,44,0.00,,,0.00,Wunderground v.1.15,2013-05-30 23:00:00,
2013-05-30 19:10:00,86.7,63.4,30.07,SSE,160,5.0,7.0,46,0.00,,,0.00,Wunderground v.1.15,2013-05-30 23:10:00,
2013-05-30 19:15:00,86.7,64.1,30.07,South,174,5.0,7.0,47,0.00,,,0.00,Wunderground v.1.15,2013-05-30 23:15:00,
2013-05-30 19:25:00,86.0,64.0,30.07,SSE,161,5.0,5.0,48,0.00,,,0.00,Wunderground v.1.15,2013-05-30 23:25:00,
2013-05-30 19:35:00,85.6,64.2,30.07,South,189,5.0,5.0,49,0.00,,,0.00,Wunderground v.1.15,2013-05-30 23:35:00,
2013-05-30 19:40:00,85.6,64.8,30.07,SSE,164,5.0,8.0,50,0.00,,,0.00,Wunderground v.1.15,2013-05-30 23:40:00,
2013-05-30 19:50:00,85.0,64.8,30.07,South,186,5.0,6.0,51,0.00,,,0.00,Wunderground v.1.15,2013-05-30 23:50:00,
2013-05-30 19:55:00,84.8,64.7,30.08,South,189,5.0,6.0,51,0.00,,,0.00,Wunderground v.1.15,2013-05-30 23:55:00,
2013-05-30 20:00:00,84.4,64.9,30.08,South,177,4.0,4.0,52,0.00,,,0.00,Wunderground v.1.15,2013-05-31 00:00:00,
2013-05-30 20:10:00,83.8,64.8,30.08,South,177,5.0,6.0,53,0.00,,,0.00,Wunderground v.1.15,2013-05-31 00:10:00,
2013-05-30 20:15:00,83.5,65.6,30.08,South,169,5.0,5.0,55,0.00,,,0.00,Wunderground v.1.15,2013-05-31 00:15:00,
2013-05-30 20:20:00,83.3,65.4,30.08,South,184,4.0,7.0,55,0.00,,,0.00,Wunderground v.1.15,2013-05-31 00:20:00,
2013-05-30 20:30:00,82.5,66.2,30.07,South,180,5.0,5.0,58,0.00,,,0.00,Wunderground v.1.15,2013-05-31 00:30:00,
2013-05-30 20:40:00,82.1,66.4,30.07,SSE,159,4.0,5.0,59,0.00,,,0.00,Wunderground v.1.15,2013-05-31 00:40:00,
2013-05-30 20:45:00,81.7,66.5,30.07,SSE,157,3.0,3.0,60,0.00,,,0.00,Wunderground v.1.15,2013-05-31 00:45:00,
2013-05-30 20:55:00,81.1,66.8,30.07,SE,146,4.0,7.0,62,0.00,,,0.00,Wunderground v.1.15,2013-05-31 00:55:00,
2013-05-30 21:05:00,80.6,67.3,30.08,SE,146,2.0,3.0,64,0.00,,,0.00,Wunderground v.1.15,2013-05-31 01:05:00,
2013-05-30 21:15:00,80.4,67.6,30.08,South,169,2.0,2.0,65,0.00,,,0.00,Wunderground v.1.15,2013-05-31 01:15:00,
2013-05-30 21:20:00,80.2,67.4,30.08,South,169,2.0,3.0,65,0.00,,,0.00,Wunderground v.1.15,2013-05-31 01:20:00,
2013-05-30 21:25:00,79.8,67.4,30.08,SSW,194,3.0,4.0,66,0.00,,,0.00,Wunderground v.1.15,2013-05-31 01:25:00,
2013-05-30 21:35:00,79.4,67.5,30.08,SSE,167,2.0,5.0,67,0.00,,,0.00,Wunderground v.1.15,2013-05-31 01:35:00,
2013-05-30 21:40:00,79.3,67.8,30.08,SSE,167,2.0,2.0,68,0.00,,,0.00,Wunderground v.1.15,2013-05-31 01:40:00,
2013-05-30 21:50:00,78.9,67.9,30.09,SSE,167,1.0,2.0,69,0.00,,,0.00,Wunderground v.1.15,2013-05-31 01:50:00,
2013-05-30 22:00:00,78.3,67.7,30.08,SSE,167,2.0,2.0,70,0.00,,,0.00,Wunderground v.1.15,2013-05-31 02:00:00,
2013-05-30 22:05:00,78.3,67.7,30.08,SSE,167,1.0,2.0,70,0.00,,,0.00,Wunderground v.1.15,2013-05-31 02:05:00,
2013-05-30 22:15:00,77.8,67.6,30.08,SSE,167,1.0,2.0,71,0.00,,,0.00,Wunderground v.1.15,2013-05-31 02:15:00,
2013-05-30 22:20:00,77.6,67.4,30.09,SSE,167,2.0,4.0,71,0.00,,,0.00,Wunderground v.1.15,2013-05-31 02:20:00,
2013-05-30 22:30:00,77.6,67.0,30.09,SSW,194,3.0,3.0,70,0.00,,,0.00,Wunderground v.1.15,2013-05-31 02:30:00,
2013-05-30 22:35:00,77.6,67.0,30.09,South,172,3.0,3.0,70,0.00,,,0.00,Wunderground v.1.15,2013-05-31 02:35:00,
2013-05-30 22:45:00,77.6,66.6,30.09,South,172,3.0,3.0,69,0.00,,,0.00,Wunderground v.1.15,2013-05-31 02:45:00,
2013-05-30 22:50:00,77.2,67.1,30.09,South,172,2.0,2.0,71,0.00,,,0.00,Wunderground v.1.15,2013-05-31 02:50:00,
2013-05-30 23:00:00,76.7,67.0,30.09,South,172,2.0,2.0,72,0.00,,,0.00,Wunderground v.1.15,2013-05-31 03:00:00,
2013-05-30 23:10:00,76.0,66.7,30.09,South,172,3.0,3.0,73,0.00,,,0.00,Wunderground v.1.15,2013-05-31 03:10:00,
2013-05-30 23:15:00,76.0,66.7,30.09,South,172,2.0,3.0,73,0.00,,,0.00,Wunderground v.1.15,2013-05-31 03:15:00,
2013-05-30 23:20:00,75.8,66.5,30.09,South,172,3.0,3.0,73,0.00,,,0.00,Wunderground v.1.15,2013-05-31 03:20:00,
2013-05-30 23:31:00,75.8,66.1,30.09,South,172,2.0,2.0,72,0.00,,,0.00,Wunderground v.1.15,2013-05-31 03:31:00,
2013-05-30 23:40:00,75.6,65.5,30.09,South,172,2.0,2.0,71,0.00,,,0.00,Wunderground v.1.15,2013-05-31 03:40:00,
2013-05-30 23:46:00,75.6,65.5,30.09,South,172,3.0,3.0,71,0.00,,,0.00,Wunderground v.1.15,2013-05-31 03:46:00,
2013-05-30 23:55:00,75.5,65.4,30.09,SSE,159,3.0,5.0,71,0.00,,,0.00,Wunderground v.1.15,2013-05-31 03:55:00,